Hourly Data Report for June 19, 2020

OTTAWA INTL A
ONTARIO
Current Station Operator: NAVCAN

45°19'00.000" N
75°40'00.000" W
114.90 m
6106001
71628
YOW

Download Data

Hourly Data (June 2020)
Hourly Data Report for June 19, 2020
TIME
LST
Temp Definition
°C
Dew Point Definition
°C
Rel Hum Definition
%
Precip. Amount Definition
mm

Wind Dir Definition
10's deg

Wind Spd Definition
km/h
Visibility Definition
km
Stn Press Definition
kPa
Hmdx Definition


Wind Chill Definition


Weather Definition


00:00 20.6 12.7 60   19 7 24.1 100.30     LegendNANA
01:00 18.9 12.4 66   20 5 24.1 100.34     Clear
02:00 17.9 12.9 73   20 7 24.1 100.35     LegendNANA
03:00 18.0 14.6 80   23 11 24.1 100.36     LegendNANA
04:00 17.5 14.9 85   24 7 24.1 100.38     Mainly Clear
05:00 17.9 15.8 87   26 9 24.1 100.43     LegendNANA
06:00 20.1 17.3 84   25 8 24.1 100.48 26   LegendNANA
07:00 22.0 18.4 80   23 10 24.1 100.46 28   Mainly Clear
08:00 23.9 18.7 72   21 13 24.1 100.45 30   LegendNANA
09:00 25.8 18.8 65   23 12 24.1 100.41 32   LegendNANA
10:00 27.4 19.0 60   19 6 24.1 100.38 34   Mainly Clear
11:00 28.7 18.8 55   16 8 24.1 100.34 35   LegendNANA
12:00 29.4 17.4 48   22 7 24.1 100.28 35   LegendNANA
13:00 29.4 16.4 45   20 8 24.1 100.24 34   Mainly Clear
14:00 30.3 17.0 44   18 10 24.1 100.22 36   LegendNANA
15:00 30.2 16.2 42   18 16 24.1 100.16 35   LegendNANA
16:00 30.5 16.0 41   21 12 24.1 100.12 35   Mainly Clear
17:00 30.2 15.3 40   21 10 24.1 100.11 34   LegendNANA
18:00 29.3 14.7 40   21 9 24.1 100.12 33   LegendNANA
19:00 27.6 14.7 45   20 10 24.1 100.11 31   Mainly Clear
20:00 24.6 15.1 55   19 8 24.1 100.12 29   LegendNANA
21:00 23.9 15.7 60   19 7 24.1 100.19 28   LegendNANA
22:00 23.1 15.5 62   20 8 22.5 100.20 27   Clear
23:00 21.8 15.6 67   19 8 24.1 100.19 26   LegendNANA

Notes on Data Quality.

Legend

  • E = Estimated
  • M = Missing
  • NA = Not Available*
  • [empty] = Indicates an unobserved value
Date modified: